[問題] 有人這次猜拳活動湊不到七勝的嗎?

作者
看板 Tos
時間
留言 182則留言,167人參與討論
推噓 105推 29噓 48→
我記得我好像有兩三天忘記參加 連今天必定獲勝一起結算也只有六勝 雖然獵人早就抽滿了不管送哪張都沒差 不過21天要湊到七勝比想像中的難啊? 中間連續好幾天都是輸或和的時候真的想白眼。 -- 作者 tommy910174 (........) 看板 Baseball 標題 [討論] 陳金鋒是不是已經不會打變化球了 時間 Wed May 11 22:24:47 2011 作者 deadchild (小時了了) 看板 Baseball 標題 [新聞] 隊長的責任 陳金鋒12局下再見轟 時間 Thu May 12 09:18:34 2011 陳金鋒賽後笑得很開心,他說:「第1球是直球,本來就在等,結果錯過揮棒機會,第2球 沒刻意挑選,打到變化球,看到球飛過中外野全壘打牆,才知是結束比賽的一擊。」 -- ※ 發信站: 批踢踢實業坊(ptt.cc), 來自: 220.134.18.66 ※ 文章網址: https://www.ptt.cc/bbs/ToS/M.1529317379.A.896.html
ilovemumi: 4勝路過 06/18 18:23
cocomomo2: https://i.imgur.com/WzQ4EAT.jpg 06/18 18:24
cocomomo2: 其中1勝還是必勝給的 06/18 18:24
questioner: 我35抽都砸下去了,有沒有猜全早沒差 06/18 18:25
kwanza: 幾勝是假的 我公會也有人三勝中大獎 06/18 18:25
babufong: 幾勝沒差啦,重點是每天的參加獎 06/18 18:25
babufong: 選卡早就選出來bang成150魂了 06/18 18:25
fiercy: 已經全抽到,猜拳就只是每天拿點小東西,好像有拿過大鳥 06/18 18:26
ERICTOR: 2勝 連賺個50魂都賺不到 06/18 18:27
arabeske: 連續猜石x7 布x7 剪~ 剛好就是7勝. 其實全部出一樣也行 06/18 18:28
coeXist: 非洲人路過 猜拳4勝2肥婆 阿路加送我倉管 之前龐貝40抽只 06/18 18:28
coeXist: 1隻 蒸蚌 06/18 18:28
nodnarb1027: 含必帶五勝 06/18 18:30
m3fm03: 還真的湊不到7 是不是有點衰== 06/18 18:31
maxliao: |勝 06/18 18:31
maxliao: 4勝 06/18 18:31
shenmue1001: 加上今天必勝總共6勝+1 06/18 18:32
roys606: (舉手) 連最後一天送的也只湊到四勝 不過有小傑我就算了 06/18 18:33
a37988233: 5勝報到 幹你老師 06/18 18:36
sawkuanwoo: 8次,可是沒有稀有 06/18 18:38
scpx: 對我來說沒差 伊 雷 比 有比較好嗎 06/18 18:39
pippen2002: 8勝報到,可是沒有稀有! X你老師! 06/18 18:39
srw07314: 七勝也不一定會給你想要的 放寬心吧 06/18 18:40
sffjh92104: 小弟7勝無大獎,換150魂,這樣有讓你比較欣慰嗎XD 06/18 18:42
omyg0d2007: 七勝但都是肥婆 沒有感到更好... 06/18 18:43
wtf1320: 5勝…… 06/18 18:44
able2214: 全部出剪刀才5勝... 06/18 18:46
gygycowbei: 剛好7 都肥婆 有傑庫沒差 06/18 18:47
sean11bill09: 每天都猜 六勝 06/18 18:47
orcgary: 加必勝 總共三勝 06/18 18:47
pinkcircleee: 看到這篇才知道結束了QQ只有6勝 06/18 18:50
TheJ: 加必勝剛好7勝.都肥婆.不過拿到3隻大鳥 06/18 18:51
ntnnthree: 3勝 不過有稀有 06/18 18:51
mike2685a: 5勝路過 06/18 18:52
logitech2004: 容易猜贏就給你肥婆,有差嗎 06/18 18:53
zxcv820421: 6... 06/18 18:54
CFfisher: 沒七勝 不過幾勝不是重點 重點是開的格子是肥婆還稀有 06/18 18:56
ii9958: 8勝 150魂 QQ 06/18 18:59
drraujn: 含必中6勝 QQQQQQQQQQQQ 06/18 18:59
shinyhaung: 3勝簽到 06/18 19:00
withjusaka: 六勝QQ 06/18 19:02
Timmy21: 加必勝3勝 每天都出一樣欸還能只贏2場 06/18 19:03
anonova: 4勝,就安慰自己7勝也是肥婆吧 06/18 19:08
a200650305: 五勝 哭哭哭 06/18 19:09
dannyace: 1勝就給奇犽了 一切都是命 06/18 19:11
henrydamn: 一勝... 06/18 19:12
hannaptt: 4勝... 06/18 19:16
bbcorn: +1 勝率33.3%,每天猜還真的達不到… 06/18 19:18
abc4865g: 六勝拿皮卡 可是我缺奇犽 06/18 19:19
q2520q: 今天剛好7勝… 06/18 19:19
dong99115155: 加起來只有5勝 06/18 19:19
DragonQuest: 4勝 06/18 19:20
atkiven: 加今天5勝 06/18 19:22
guanluvsquat: 先無勝八天,之後贏到今天,拿隻奇犽,不過我早就抽 06/18 19:23
guanluvsquat: 齊。 06/18 19:23
ryanpiggy: 每天參加 到今天必勝一起算才四勝 06/18 19:25
ga652206: 四勝 06/18 19:25
Ukanomitama: 6 06/18 19:29
firstkiki: 小帳含今天必勝共5勝...... 06/18 19:29
jamesmile: 6勝肥婆 06/18 19:30
cycle: 剛好七勝可是都肥婆,不過參加獎比較重要拿了25法眼好幾隻 06/18 19:30
cycle: 大肥挺不錯的 06/18 19:30
crazyday: 三勝路過 含今天送的一勝 06/18 19:31
ger1871: 早早就6勝停牌 然後就沒贏過了XD 06/18 19:33
popo22: 湊不到 06/18 19:34
joy0520: 6勝QQ 06/18 19:34
ClownT: 3勝喔 06/18 19:34
bingreen: 共5勝,馬的 06/18 19:36
cs9947g: 3勝路過……Q.Q 06/18 19:37
wscjoe: 剛好7勝 還不是3肥婆... 06/18 19:38
shivaeye: 每天出剪刀6勝,最後一天七勝,但沒大獎選,選比司吉 06/18 19:39
SportLeo: 四勝GG 06/18 19:42
Ydarvish: 3 06/18 19:42
yzkeroro: 3勝 哭 06/18 19:42
algebraic: 六勝報到 06/18 19:44
koo265: 6勝 就我...... 06/18 19:45
xxxHHHxxx: 沒差 都是糞卡 06/18 19:47
discharge: 第七勝才拿到奇犽 剛好沒存石抽 好爽 06/18 19:51
sam81819: 我只是想要比斯吉 其他都有了QQ 06/18 19:51
jpqh0659: 剛好7勝 結果看到雷歐力^^ 06/18 19:52
OyAlbert: 今天剛好7勝,雷歐力比斯吉廁索笑到我心發寒 06/18 19:54
sayauser: 湊到七勝也是三張肥婆阿 呵呵呵 06/18 19:56
aoiaoi: 有抽齊 幾勝根本沒差 反正獎勵隨機 06/18 19:58
ivy153642: 加必勝4勝 06/18 20:01
yasopp: 加必勝6勝 06/18 20:04
st40182: 忘了幾勝,反正不到7次 不過有拿到2隻大鳥 嘻嘻 06/18 20:06
etu4315: 我參加不到一半 加必勝剛好7勝 06/18 20:07
Elfgj: 加今天六勝,乾 06/18 20:17
doublemouse: 4勝 呵 06/18 20:19
a3225737: 沒七勝別難過 反正都肥婆 06/18 20:19
bassh: 含必勝兩勝,幹 06/18 20:21
card: 6勝+1 反正已抽滿 06/18 20:21
mihono: 5勝 少了50魂 06/18 20:22
apple037037: 十勝都小獎QQ 06/18 20:24
jj852468j: 總共六勝+1 06/18 20:26
bh20511: 6勝加1。但是有酷拉 06/18 20:29
ching82: 5勝 路過 很爛的開網頁行銷活動 06/18 20:31
ching82: 還一直強迫你要去點小妹粉絲專頁讚 06/18 20:32
simonfung720: 5勝 06/18 20:32
zxc2027: 我寧願看7勝拿到肥婆,也不要看到從缺的格子 06/18 20:32
rong1994: 只3 可撥 06/18 20:34
hibaru710218: 4勝/7勝 都肥婆其實無感… 06/18 20:35
borui: 6勝 06/18 20:36
SCLPAL: 3+1勝QQ 06/18 20:39
etyang: 三勝,沒大獎 06/18 20:44
t32908: 4 06/18 20:47
nine48seven: 四勝哭 06/18 20:48
eric280: 6勝來簽到 06/18 20:49
adidas000: 第一次玩一勝小傑,加加總總應該十幾勝吧 06/18 20:51
lbc740602: 我來了~~4勝路過 06/18 20:53
james5210333: 5勝 06/18 20:55
chei67123: 連今天送一勝總共四勝路過 06/18 20:57
xxUno: 七勝又怎樣 西索 比司吉 伊爾謎 連選都不想選... 06/18 20:59
justempty: 猜拳垃圾三兄弟 雷西彌 幸好15抽3大獎 06/18 21:03
xu6d9528: 湊不到的很多== 06/18 21:09
yccm: 7勝都肥婆 06/18 21:19
Leo88928: 加必勝6勝 加倍日12抽沒大獎 真非洲人 06/18 21:33
hipnos: 六勝簽到.... 06/18 21:33
Leo88928: 然後猜拳是比斯吉跟西索。 06/18 21:33
rockyegg: +1 06/18 21:37
lonetwyl: 七升帶走小傑 06/18 21:40
ykiekie: 我也沒有…… 06/18 21:40
pippen2002: 只好選第三隻比司吉了! 06/18 21:40
rehtie: 好像有9勝吧 反正加倍抽到小傑就只缺伊耳彌 第1勝時就有了 06/18 21:44
rehtie: 等到七勝看到三張都肥婆 毫無懸念選伊耳彌補齊 06/18 21:44
hunder31: 我呀 只有4勝 有夠慘 06/18 21:44
oel0810: 五勝 卡了好久的平手 幹 06/18 21:45
killingni: 只有5勝 但是有給我奇犽 06/18 21:47
jason0906: 6勝啦乾 06/18 21:50
wahaha2005: 6勝 幹 06/18 21:50
seanx1991: 三勝都沒有 06/18 21:53
x030062536: 含必勝2勝 06/18 21:55
Karrigan777: 6勝 但其實有好幾天都忘記開網頁猜 06/18 22:01
swsig: 6勝+1 06/18 22:03
shadya1227: 6勝+1 06/18 22:11
qqqq8745ccc: 6勝 06/18 22:11
aren: 剛好7勝,中奇犽,爽 06/18 22:15
chencjj: 4勝 1鳥1石 06/18 22:21
chencjj: 兩張垃圾 06/18 22:22
feyhs: 含必勝六勝 阿不就還好我抽滿了 06/18 22:25
Icarus00004: 全石頭 也是6勝 06/18 22:32
clivezzz: me 3勝 06/18 22:38
longkiss0618: 就機率來說 有50%的人猜不到7勝阿? 06/18 22:52
misthide: 每天猜 加今天5勝 平手比猜輸多 06/18 22:56
ptttong: 有七勝啊 但有跟沒有一樣 06/18 23:03
shinchu329: 6剩路過TAT 06/18 23:09
focustage: 三勝.......... 06/18 23:11
sharon0927: 3勝簽到 06/18 23:20
ddd1264: 3+1 06/18 23:49
canodo: 加必勝 六勝 06/18 23:52
celerywu: 6勝+1..... 06/18 23:56
teddybear221: 四勝路過= = 06/18 23:56
mikechan: 最後一天才第三勝 06/18 23:57
cyyanya: 三勝+1QQ 06/19 00:16
qwas1212: 1+1QQ 06/19 00:21
peterno5: 加必勝的一場後,剛好只有六勝.... 06/19 00:29
friends29: 六勝+1 06/19 00:48
tu80715: 應該沒有漏 或漏一天 六勝 06/19 00:55
hao1412: 6勝 呵呵 06/19 01:38
HCLHSLW: 全剪刀加最後一天必勝才三勝 不然會兩勝 06/19 02:06
a123zyx: 剛好最後一天滿 但是沒有大獎 06/19 02:28
ymx3xc: 有七勝也沒用啊 我最後一天才滿 結果來肥婆 06/19 02:32
lovecatbaby: 6勝QQ 06/19 03:11
yangnana: 一勝路過 06/19 04:05
aden1973: 現在6勝 3勝奇犽耶嘿 06/19 08:00
bobblewater: 難得都記得要猜,結果不意外 06/19 08:51
bobblewater: http://i.imgur.com/Ycnny2A.jpg 06/19 08:51
InfinitySA: 反正都給肥婆 沒差 06/19 09:21
s511344: 5勝+1 06/19 09:40
goodboy98: 樓下讓他看看一勝小傑,有些會中就是會中,跟幾勝無關 06/19 09:54
srk147: 加必勝 六勝 幹 06/19 10:23
HugoJheng: 1勝酋長路過 06/19 11:10
beypola: 四勝 06/19 11:33
Parasite0922: 全石頭..很早就開3肥婆了 06/19 11:52
e761031: 前兩天兩勝+必勝 其他全輸XD 06/19 12:43
flyforist: 四勝一個送的XDD 06/19 13:24
pc026276: https://i.imgur.com/n29WG5R.jpg 06/19 17:40
pc026276: 好難選。。 06/19 17:40
pc026276: 轉貼的圖 。。 不是我的。。Xd 06/19 17:41
aya28666888: 樓上這三小天選之人.. 06/19 19:07
Pman66124: https://i.imgur.com/Y5DpGcJ.jpg 一勝小傑 06/20 15:35
pippen2002: 當然選小傑啊! 除非你有保底了! 06/25 11:51
看更多 davidex 的文章,或回到 tos 看板

最新熱門文章

[Live] 關鍵食客
[Hatepolitics] BlackWhite55 523留言 2019-03-19 21:57:51
[道歉] 道歉文
[Gossiping] walkdog0603 433留言 2019-03-20 00:41:42
[臉書] 柯文哲
[Gossiping] thnlkj0665 408留言 2019-03-20 00:55:14
[情報] Trout接近跟天使續約
[Mlb] dragon803 352留言 2019-03-19 22:21:18
[LIVE] 緬甸VS台北
[Sportlottery] inbred 270留言 2019-03-19 19:52:36
[閒聊] 五等分的花嫁78回
[C_Chat] Novex 235留言 2019-03-19 23:42:27
Re: [心情] 抱怨婆婆
[Marriage] st6043119 225留言 2019-03-19 21:50:37
[問題] 家人堅持要品種貓...
[Cat] hiyato994 178留言 2019-03-19 21:42:55